Location: Crescent
(42.8242°N, 73.7329°W)
Time: 20:17:34
(UTC+00:00)

SR - Pass Details

Date: 17 February 2026
Orbit: 573 x 848 km, 66.7° (Epoch: 6 March)

Event Time Altitude Azimuth Distance (km) Brightness Sun altitude
Rises 10:22:21 0° 236° (SW) 2,772 - -16.6°
Reaches altitude 10° 10:24:44 10° 247° (WSW) 1,889 - -16.1°
Exits shadow 10:27:31 28° 284° (WNW) 1,125 ? -15.6°
Maximum altitude 10:28:29 31° 310° (NW) 1,056 ? -15.4°
Drops below altitude 10° 10:32:26 10° 13° (NNE) 1,982 ? -14.7°
Sets 10:35:00 0° 24° (NNE) 2,933 ? -14.2°
